Weather History for St. Johnsbury, VT

Change the Weather History Date:

Sunday, November 20, 2011

  Actual Average Record
Temperature  
Mean Temperature 46 °F 34 °F  
Max Temperature 54 °F 42 °F 68 °F (1991)
Min Temperature 38 °F 27 °F 4 °F (1894)
Degree Days  
Heating Degree Days 19 31  
Month to date heating degree days 467 538  
Since 1 July heating degree days 1134 1325  
Moisture  
Dew Point 33 °F    
Average Humidity 66    
Maximum Humidity 89    
Minimum Humidity 43    
Precipitation  
Precipitation 0.02 in 0.12 in 1.53 in (1948)
Month to date precipitation 0.24 2.30  
Year to date precipitation 46.05 35.32  
Sea Level Pressure  
Sea Level Pressure 29.98 in    
Wind  
Wind Speed - (North)    
Max Wind Speed -    
Max Gust Speed -    
T = Trace of Precipitation, MM = Missing Value Source: NWS Daily Summary

Daily Weather History Graph

Daily Weather History Graph

Search for Another Location

Airport:

Trip Planner

Search our weather history database for the weather conditions in past years. The results will help you decide how hot, cold, wet, or windy it might be!

Date:

Astronomy

Nov. 20, 2011 Rise Set
Actual Time 6:50 AM EST 4:16 PM EST
Civil Twilight 6:18 AM EST 4:48 PM EST
Nautical Twilight 5:42 AM EST 5:23 PM EST
Astronomical Twilight 5:08 AM EST 5:58 PM EST
Moon 1:03 AM EST (11/20) 1:14 PM EST (11/20)
Length of Visible Light 10h 29m
Length of Day
9h 26m
Waning Crescent, 27% of the Moon is Illuminated
Nov 20
Waning Crescent
Nov 25
New
Dec 2
First Quarter
Dec 10
Full
Dec 17
Last Quarter

Hourly Weather History & Observations

Time (EST) Temp. Dew Point Humidity Pressure Visibility Wind Dir Wind Speed Gust Speed Precip Events Conditions
12:54 AM 43.0 °F 21.9 °F 43% 30.06 in - North - - N/A   Unknown
1:54 AM 43.0 °F 21.9 °F 43% 30.03 in - North - - N/A   Unknown
2:54 AM 42.1 °F 23.0 °F 47% 30.00 in - North - - N/A   Unknown
3:54 AM 42.1 °F 24.1 °F 49% 29.98 in - North - - N/A   Unknown
4:54 AM 42.1 °F 26.1 °F 53% 29.96 in - North - - N/A   Unknown
5:54 AM 43.0 °F 27.0 °F 53% 29.93 in - North - - N/A   Unknown
6:54 AM 43.0 °F 28.0 °F 56% 29.93 in - North - - N/A   Unknown
7:54 AM 42.1 °F 30.9 °F 65% 29.91 in - North - - N/A   Unknown
8:54 AM 44.1 °F 30.9 °F 60% 29.89 in - North - - N/A   Unknown
9:54 AM 46.0 °F 32.0 °F 58% 29.88 in - North - - N/A   Unknown
10:54 AM 48.9 °F 34.0 °F 56% 29.87 in - North - - N/A   Unknown
11:54 AM 53.1 °F 37.0 °F 55% 29.85 in - North - - N/A   Unknown
12:54 PM 53.1 °F 39.0 °F 59% 29.86 in - North - - N/A   Unknown
1:54 PM 54.0 °F 42.1 °F 64% 29.87 in - North - - N/A   Unknown
2:54 PM 51.1 °F 46.9 °F 86% 29.92 in - North - - 0.02 in   Unknown
3:54 PM 51.1 °F 48.0 °F 89% 29.95 in - North - - N/A   Unknown
4:54 PM 51.1 °F 44.1 °F 77% 30.00 in - North - - N/A   Unknown
5:54 PM 48.9 °F 39.0 °F 69% 30.03 in - North - - N/A   Unknown
6:54 PM 46.9 °F 37.9 °F 71% 30.06 in - North - - N/A   Unknown
7:54 PM 45.0 °F 36.0 °F 71% 30.07 in - North - - N/A   Unknown
8:54 PM 44.1 °F 36.0 °F 73% 30.08 in - North - - N/A   Unknown
9:54 PM 43.0 °F 34.0 °F 71% 30.11 in - North - - N/A   Unknown
10:54 PM 41.0 °F 33.1 °F 73% 30.13 in - North - - N/A   Unknown
11:54 PM 37.9 °F 30.0 °F 73% 30.15 in - North - - N/A   Unknown